{"data":{"norad_id":67581,"intl_designator":"2026-016W","name":"STARLINK-36632","alt_names":[],"object_type":"PAYLOAD","status":"ACTIVE","operator":null,"country":"US","launch_date":"2026-01-25","launch_site_code":"AFWTR","launch_vehicle":null,"mission":null,"orbit_class":"UNKNOWN","rcs_meters":null,"size_class":null,"mass_kg":null,"dimensions":null,"purposes":["comms"],"wikipedia_slug":null,"has_3d_model":false,"image_url":null,"decayed_at":null,"tle_current":{"epoch":"2026-05-25T03:30:40.834944Z","epoch_age_seconds":63238,"freshness":"FRESH","line1":"1 67581U 26016W   26145.14630596  .00019987  00000+0  61968-3 0  9990","line2":"2 67581  97.2840 205.5133 0001186  87.1318 273.0060 15.33451284 18588","mean_motion":15.33451284,"eccentricity":0.0001186,"inclination_deg":97.284,"raan_deg":205.5133,"arg_perigee_deg":87.1318,"mean_anomaly_deg":273.006,"bstar":0.00061968,"rev_number":1858,"period_min":93.905819834313,"perigee_km":464.71281952789,"apogee_km":466.33613603042,"semimajor_km":6843.6614777792,"source":"CELESTRAK","updated_at":"2026-05-25T13:38:21.617598Z"}}}